Temp_Advection
nan nan nan nan nan nan nan nan nan nan nan nan nan nan nan nan nan nan nan nan nan nan nan nan nan nan nan nan nan nan nan nan nan nan nan nan nan nan nan nan nan nan nan nan nan
nan -0 -0 -0 0 0 -0 -0 0 0 -0 -0 0 -0 -0 0 0 0 -0 -0 0 0 0 -0 -0 -0 -0 -0 -0 -0 -0 -0 -0 -0 -0 -0 -0 -0 -0 -0 -0 0 0 0 nan
nan -0 -0 -0 -0 -0 -0 -0 0 0 -0 -0 -0 -0 0 0 -0 -0 -0 0 0 1 0 0 0 0 -0 -0 0 0 -0 -0 -0 -0 -0 -0 -0 -0 -0 -0 -0 -0 -0 0 nan
nan 0 0 0 0 -0 0 0 0 0 0 -0 -0 -0 0 0 -0 0 0 0 -0 0 0 0 0 -0 -0 -0 0 0 0 -0 -0 -0 -0 -0 -0 -0 -0 -0 -0 0 -0 -0 nan
nan 0 0 0 -0 -0 -0 0 0 0 0 -0 -0 -0 0 0 0 0 0 -0 0 0 0 0 -0 0 0 -0 -0 0 -0 0 0 0 -0 -0 -0 -0 -0 -0 0 0 0 -0 nan
nan 0 0 -0 0 0 0 0 0 0 -0 -0 0 0 0 -0 0 0 0 0 0 0 0 0 0 0 0 0 0 0 0 -0 0 0 0 -0 -0 -0 -0 -0 0 0 0 -0 nan
nan 0 0 0 0 0 0 0 0 0 0 0 0 0 -0 0 0 0 0 0 0 0 0 0 1 0 0 0 0 0 -0 -0 0 -0 0 -0 -1 -1 -0 0 0 0 0 0 nan
nan 0 0 0 0 0 0 -0 0 0 0 0 0 0 0 0 0 0 -0 0 0 0 0 0 0 0 0 -0 0 -0 -0 -0 -0 0 -0 -0 -1 -0 0 0 0 0 0 0 nan
nan 0 0 0 0 0 0 -0 -0 0 0 0 0 0 0 1 1 0 0 -0 0 0 0 0 0 0 0 -0 -0 -0 -0 0 -0 -0 -0 -0 -1 0 1 0 0 0 -0 -0 nan
nan 0 0 -0 -0 0 0 0 0 -0 0 0 0 0 0 0 1 0 0 0 -0 -0 0 0 0 0 -0 0 0 0 0 -0 -0 -0 0 -0 -1 -1 0 0 0 0 0 -0 nan
nan -0 0 0 -0 0 0 0 0 -0 0 -0 0 0 -0 1 1 0 0 0 0 -0 -0 -0 -0 0 0 -0 0 0 0 -0 -0 -0 -0 -0 -0 -1 0 0 0 -0 0 -0 nan
nan -0 -0 -0 0 0 0 -0 -0 -0 -0 -0 1 -0 0 0 0 1 0 0 -0 -0 -0 -0 0 -0 0 0 0 -0 -0 -0 -0 0 -0 -1 -1 -1 0 0 0 -0 -0 0 nan
nan -0 -0 0 0 0 0 -0 0 -0 -0 0 0 0 0 1 0 0 0 0 0 -0 -0 0 -0 0 -0 0 -0 -0 -0 -0 -0 -1 -0 -0 -0 -0 0 0 0 0 0 0 nan
nan 0 -0 -0 -0 0 0 0 0 0 -0 0 0 0 0 0 0 0 0 0 0 0 0 -0 0 0 0 -0 -0 -0 -0 -0 0 -0 -0 -0 -0 -0 -0 0 0 0 -0 0 nan
nan 0 0 -0 -0 -0 0 0 -0 -0 -0 0 0 0 0 0 0 -0 0 -0 0 -0 0 -0 0 -0 -0 -0 -0 0 -0 -0 0 0 -0 0 -0 -0 0 0 -0 -0 -0 -0 nan
nan -0 -0 -0 -0 -1 -0 0 -0 -0 -0 -0 0 -0 0 0 -0 0 0 0 0 0 -0 -0 -0 -0 -0 -0 -0 -0 -0 0 0 0 -0 -0 -0 -0 0 -0 -1 -0 -0 -0 nan
nan -0 -0 -0 -0 -0 -0 -0 -0 -0 0 0 0 0 0 -0 0 0 -0 -0 -0 -0 0 0 0 -0 0 -0 0 0 -0 -0 -0 -0 -0 -0 -0 -0 -0 -0 0 -0 -0 -0 nan
nan -0 0 -0 -0 -0 -0 -0 -0 -0 0 -0 0 -0 0 0 -0 0 0 -0 0 0 -0 0 0 -0 -0 0 -0 0 -0 -0 -0 -0 -0 -0 -0 0 -0 0 0 0 0 -0 nan
nan -0 0 0 -0 -0 -0 0 0 0 0 -0 -0 -0 -0 0 0 -0 0 0 0 -0 -0 -0 -0 -0 -0 0 0 -0 -0 -0 -0 0 -0 -0 -0 0 0 0 0 0 0 -0 nan
nan 0 1 1 0 0 0 -0 0 0 0 -0 0 0 -0 -0 -0 -0 -0 -0 -0 -0 -0 -0 -0 -0 -0 -0 -0 0 -0 0 -0 -0 -0 -0 0 0 1 0 0 0 0 0 nan
nan -0 1 1 0 -0 -0 0 -0 -0 0 -0 0 0 -0 0 0 -0 -0 -0 -0 -0 -0 -0 0 -0 -0 -0 -0 -0 -0 -0 -0 -0 -0 -0 -0 -0 0 0 0 0 0 -0 nan
nan 0 1 0 -0 -0 0 0 0 0 0 0 0 0 -0 -0 0 0 -0 -0 -0 0 0 -0 -0 -0 -0 -0 -0 0 0 0 0 0 -0 -0 0 -0 0 -0 0 0 0 -0 nan
nan 0 0 -0 -0 0 -0 -0 0 -0 0 0 -0 -0 -0 0 0 -0 -0 -0 0 -0 -0 -0 0 -0 0 0 0 -0 -0 0 0 -0 -0 -0 -0 -0 -0 -0 -0 -0 -0 -1 nan
nan -0 -0 -1 0 0 -0 -0 -0 -0 0 0 0 0 0 0 0 -0 -0 -0 0 0 -0 -0 -0 -0 -0 0 0 -0 0 0 0 -0 -0 -0 0 -0 -0 -0 -1 -0 -1 -1 nan
nan -0 -0 0 0 0 -0 -0 -0 0 0 0 0 -0 0 0 -0 -0 -0 -0 -0 -0 -0 -0 -0 -0 -1 -0 -0 0 -0 0 0 -1 -1 -0 -0 0 -0 -0 -1 -1 -1 -1 nan
nan -0 0 -0 -0 0 -0 -0 -0 0 -0 0 -0 0 0 -0 -0 -0 -0 0 0 -0 -0 0 0 0 -0 -0 0 -0 -1 -0 -0 -0 -0 -0 -1 -1 1 -0 -0 -1 -0 0 nan
nan nan nan nan nan nan nan nan nan nan nan nan nan nan nan nan nan nan nan nan nan nan nan nan nan nan nan nan nan nan nan nan nan nan nan nan nan nan nan nan nan nan nan nan nan
Wind_Speed
11 12 13 15 13 13 12 10 8 8 6 6 6 16 17 9 10 5 3 5 7 8 8 7 7 7 8 5 3 1 4 5 3 4 6 3 1 1 3 7 6 7 9 12 15
18 15 16 15 13 12 10 9 8 8 7 8 8 9 16 10 7 9 7 7 9 10 9 10 11 11 5 4 1 5 3 4 4 5 5 2 3 5 5 7 12 13 14 13 13
7 9 8 10 11 13 14 13 9 10 8 7 11 8 15 10 7 9 9 9 10 13 10 8 10 9 6 7 3 3 2 4 3 4 3 3 7 5 7 9 9 10 14 16 17
9 7 5 6 5 8 9 10 9 12 10 9 7 8 12 16 5 9 12 12 11 10 11 10 10 7 7 7 5 4 2 1 2 1 4 6 10 8 14 20 18 18 19 19 19
8 4 5 5 6 6 6 6 8 10 11 7 7 7 13 11 4 11 16 14 12 11 11 9 10 6 6 6 6 3 4 2 1 3 7 9 13 13 23 20 17 14 15 17 17
8 3 4 4 4 3 4 6 6 6 7 6 6 11 14 5 12 20 16 11 11 10 10 9 6 4 7 5 2 2 3 2 2 3 6 9 12 5 3 2 7 12 14 15 16
6 2 3 4 4 4 5 5 3 8 8 8 11 13 13 9 18 13 23 11 11 9 9 8 10 3 9 5 4 2 3 3 1 1 2 7 12 10 9 6 14 16 18 19 20
4 6 2 1 3 4 5 5 4 3 11 9 8 10 6 14 18 17 11 12 12 9 11 8 10 9 4 8 3 2 2 3 6 1 2 3 8 6 2 10 16 16 16 17 16
10 10 3 3 1 6 4 4 5 6 13 6 7 7 7 21 21 18 14 17 15 12 10 8 6 5 6 4 2 4 3 5 4 3 1 5 9 1 10 10 14 12 10 11 11
13 8 6 5 5 5 2 3 9 10 8 7 10 6 14 11 16 16 17 16 10 12 9 3 2 4 4 6 3 6 3 3 5 4 7 11 18 16 13 13 11 8 10 10 11
15 10 7 5 6 7 16 23 19 10 15 8 8 12 22 19 18 15 13 13 11 6 3 2 3 5 6 1 4 4 1 3 5 2 8 8 14 15 15 10 7 7 8 9 12
12 11 9 6 7 15 14 6 8 13 13 23 21 27 25 16 13 10 8 3 6 6 6 2 4 5 7 5 4 3 1 3 4 1 5 12 19 18 8 4 3 6 9 11 14
12 6 8 6 11 14 10 20 18 17 7 11 16 11 10 11 10 7 3 5 9 7 4 3 8 8 5 2 3 4 3 3 2 10 14 11 11 4 5 3 4 6 8 11 12
18 10 2 11 17 19 22 18 20 7 3 8 6 5 6 7 6 5 3 2 2 7 8 5 7 5 3 2 3 1 2 1 5 8 4 8 5 7 2 3 3 5 8 12 12
19 19 11 10 20 15 22 24 13 3 5 6 4 5 3 3 13 3 4 1 4 7 3 2 7 5 3 3 4 4 2 5 6 6 7 4 3 2 3 3 1 11 8 9 10
13 17 18 18 18 23 16 9 4 3 7 3 2 3 7 5 4 3 3 5 4 5 4 6 1 2 3 1 4 4 5 5 2 1 3 3 4 5 3 5 10 8 5 6 8
8 7 6 9 7 14 7 3 1 6 1 4 3 6 8 5 4 2 3 4 1 3 2 1 2 2 3 2 2 2 3 2 3 3 2 0 4 9 1 3 4 5 6 5 8
8 9 6 2 7 6 2 3 8 4 7 2 6 8 5 1 3 3 3 5 2 1 3 2 2 6 8 3 3 3 2 2 3 3 5 3 6 1 4 3 3 5 7 2 5
15 18 15 6 6 5 2 6 4 4 5 8 6 7 3 3 1 2 3 3 3 1 2 3 1 3 6 2 4 4 2 3 3 5 3 6 7 3 4 4 5 4 3 3 3
11 14 19 16 13 10 5 7 8 6 7 1 3 3 6 5 4 3 2 2 2 1 2 2 2 5 5 4 6 2 2 1 2 3 4 4 5 4 5 5 2 2 2 2 1
10 6 17 15 17 13 5 7 9 5 2 3 4 5 5 4 2 3 3 3 1 3 1 3 3 4 4 7 4 4 2 4 2 3 3 5 3 1 4 2 3 3 3 5 4
10 4 10 11 6 3 6 4 2 4 3 3 4 6 5 2 3 2 4 4 3 1 2 3 3 3 3 3 2 6 8 5 3 2 5 4 3 3 2 2 4 4 6 8 8
7 7 16 8 5 7 7 6 6 4 6 4 5 6 3 2 2 4 3 3 2 1 4 2 1 2 2 3 3 6 7 7 5 3 8 4 2 4 4 5 5 7 9 11 10
2 2 7 10 2 4 6 6 4 3 5 4 3 1 0 3 2 3 3 2 3 1 2 2 3 5 5 5 3 6 7 9 7 4 6 10 11 7 7 8 11 13 14 13 12
6 4 1 1 5 7 4 1 5 3 4 3 3 5 3 2 2 3 1 3 3 2 2 3 4 5 11 14 13 14 14 11 13 14 6 5 10 10 8 12 17 17 16 15 14
3 2 3 2 1 1 1 2 3 2 1 3 4 2 3 2 2 2 2 2 1 4 2 1 3 8 5 4 6 13 16 18 18 18 16 19 21 15 12 13 17 19 18 18 17
8 5 2 2 2 4 2 2 1 2 1 0 1 2 3 1 4 7 8 6 3 2 2 2 3 4 5 2 11 13 18 20 14 13 16 14 11 2 8 12 18 19 19 19 17
Wind_Direction
279 279 271 281 271 261 268 255 250 261 285 288 261 207 234 229 214 209 221 200 187 175 150 147 142 137 136 163 163 219 247 207 119 180 97 118 220 86 303 283 275 256 270 278 297
286 275 265 259 258 250 261 256 244 246 257 272 299 236 200 218 215 206 235 200 180 155 138 156 153 147 138 158 179 218 262 58 29 53 81 84 331 336 300 284 270 271 281 284 295
297 278 272 258 241 244 255 260 244 231 241 248 267 315 197 201 228 204 200 176 167 150 156 163 154 148 137 165 158 183 306 110 101 58 13 334 299 326 295 279 280 304 300 297 296
284 277 271 261 237 236 239 247 227 218 224 234 264 263 184 176 200 185 171 159 169 153 144 150 160 169 155 165 171 162 110 2 86 45 335 313 308 284 265 265 290 296 294 293 293
259 270 255 253 246 258 227 219 211 216 218 224 218 216 191 181 151 162 146 180 161 150 158 163 171 173 168 150 153 204 158 198 267 294 296 293 277 280 278 285 289 293 289 292 294
237 245 224 243 246 220 177 176 194 196 226 220 190 187 185 187 156 152 166 161 158 146 156 158 180 174 124 126 238 121 179 226 291 304 286 287 288 299 281 346 312 305 298 295 295
201 208 234 257 225 183 177 172 153 190 199 204 170 177 187 190 148 151 156 151 150 152 149 135 140 175 137 134 126 127 263 202 250 134 319 313 273 233 265 283 307 308 302 297 294
206 194 210 233 188 177 174 178 175 139 163 173 175 171 140 172 157 154 150 147 149 134 135 115 124 110 118 121 135 215 256 247 130 254 156 310 290 134 211 302 308 311 309 309 310
120 144 158 158 164 171 164 184 198 137 147 153 168 151 121 155 159 138 154 133 128 131 123 116 109 109 136 164 160 197 225 235 174 204 258 227 294 140 305 305 305 315 330 328 330
85 123 102 124 116 147 159 167 166 138 125 94 164 91 143 110 119 144 135 127 123 127 103 81 95 150 163 186 208 168 204 249 246 142 262 267 268 277 290 290 295 313 326 334 339
62 67 73 86 118 137 126 108 104 78 67 47 136 89 105 122 122 120 123 120 128 143 125 124 214 185 134 60 101 114 177 243 276 337 303 268 283 289 290 285 269 310 323 333 335
53 62 58 48 155 145 145 96 105 123 66 55 107 102 115 122 120 122 128 144 165 124 124 159 156 102 120 127 137 164 249 297 302 296 286 292 292 283 288 199 288 324 337 337 331
40 50 57 62 138 156 139 117 122 110 80 28 47 77 75 94 105 103 92 124 127 130 164 196 126 148 148 129 209 218 274 343 321 312 264 295 279 132 164 233 247 317 337 331 337
25 42 91 131 119 130 121 122 122 112 94 13 34 54 52 124 68 68 74 123 137 126 111 99 147 172 191 234 241 306 78 337 315 336 307 354 293 294 141 256 238 304 346 331 334
49 51 86 141 119 133 128 126 157 307 77 2 39 81 85 101 139 57 48 1 129 129 206 127 172 180 211 244 199 42 343 291 296 307 322 118 247 277 192 259 347 354 350 337 335
55 82 99 133 122 139 142 158 278 242 66 80 88 178 120 79 60 104 99 85 98 109 83 104 109 258 349 229 221 356 301 291 247 251 255 211 245 283 338 352 328 337 340 327 342
39 81 129 156 156 158 209 279 271 46 200 54 81 131 95 101 86 81 124 131 145 113 47 140 174 183 231 211 180 260 313 208 218 223 313 9 290 261 41 26 290 315 325 332 341
37 52 54 149 222 234 266 248 60 59 75 156 114 115 84 48 80 96 132 120 124 278 109 161 200 202 171 272 141 177 308 321 268 317 333 100 240 227 114 303 246 290 289 340 347
56 55 40 60 97 131 259 50 61 74 114 128 139 93 87 91 96 159 81 72 55 34 141 160 211 161 199 149 208 156 225 44 324 244 253 216 235 180 182 330 311 319 334 331 2
65 59 44 54 68 71 63 97 91 89 102 220 77 299 125 120 172 220 151 91 123 189 273 122 139 208 143 224 213 296 58 261 168 279 282 207 244 281 291 308 321 293 299 344 36
49 60 13 49 62 63 46 73 90 72 14 334 91 118 92 104 94 91 75 147 181 135 300 286 270 150 194 205 167 183 232 216 278 249 294 315 91 166 288 264 268 234 197 187 180
60 56 25 52 46 64 49 14 349 63 55 62 40 58 63 75 88 102 96 48 126 166 336 29 328 252 234 116 287 287 269 263 277 151 251 278 291 156 187 190 211 215 204 202 185
65 74 52 85 77 73 95 86 51 45 37 32 49 28 16 46 54 55 53 39 158 257 360 32 203 275 203 186 190 238 219 229 281 296 248 284 64 136 145 150 194 190 192 197 211
11 61 41 56 80 54 79 53 94 47 69 64 67 87 90 65 33 122 128 142 180 239 345 323 283 266 292 334 315 247 218 215 221 253 293 248 290 186 194 187 187 197 205 217 226
29 44 29 69 72 79 89 93 80 65 45 44 87 48 10 64 75 70 58 163 188 189 225 270 276 302 280 280 275 260 260 233 222 236 259 297 298 298 211 207 200 205 217 229 240
67 13 6 38 335 113 95 63 71 117 318 79 86 35 31 75 38 11 313 215 345 176 239 187 285 328 286 270 279 262 252 244 243 239 250 264 276 271 247 201 206 213 220 229 235
40 52 15 52 318 287 41 142 146 191 184 329 190 230 208 148 297 289 268 262 247 244 219 255 294 321 269 295 303 273 249 230 232 235 233 246 262 209 216 215 217 221 224 232 238
Height
1467 1468 1471 1471 1473 1475 1474 1475 1476 1477 1477 1477 1478 1482 1486 1487 1488 1490 1494 1495 1494 1494 1495 1498 1502 1503 1504 1508 1509 1509 1503 1494 1498 1501 1505 1514 1511 1515 1515 1514 1513 1513 1512 1512 1512
1464 1465 1466 1467 1468 1471 1472 1472 1474 1475 1476 1477 1477 1479 1484 1487 1488 1490 1492 1491 1492 1493 1497 1502 1503 1504 1506 1509 1510 1507 1503 1496 1507 1508 1508 1513 1514 1514 1515 1512 1510 1510 1510 1511 1511
1460 1461 1462 1462 1464 1467 1469 1470 1472 1474 1475 1476 1477 1479 1482 1486 1488 1487 1488 1490 1492 1494 1500 1503 1503 1505 1506 1510 1511 1509 1502 1509 1513 1514 1515 1514 1514 1514 1514 1509 1507 1508 1508 1509 1509
1457 1458 1459 1460 1461 1463 1466 1468 1470 1472 1473 1475 1477 1479 1481 1484 1487 1486 1488 1491 1493 1495 1498 1502 1504 1505 1507 1509 1512 1509 1511 1513 1514 1516 1516 1516 1515 1513 1511 1507 1508 1508 1509 1507 1506
1454 1456 1457 1459 1460 1462 1464 1465 1468 1470 1472 1473 1476 1478 1481 1483 1485 1486 1489 1491 1493 1497 1499 1501 1503 1506 1505 1508 1510 1507 1512 1516 1517 1517 1517 1517 1514 1512 1506 1506 1505 1506 1506 1504 1503
1451 1454 1456 1458 1460 1461 1462 1465 1467 1469 1470 1472 1475 1477 1481 1485 1483 1486 1490 1494 1495 1498 1500 1502 1506 1507 1508 1508 1509 1513 1514 1514 1516 1516 1516 1515 1510 1511 1502 1504 1504 1504 1503 1502 1501
1450 1453 1456 1458 1459 1461 1462 1465 1467 1469 1470 1473 1474 1477 1480 1484 1485 1487 1490 1495 1497 1500 1502 1503 1505 1507 1509 1511 1514 1514 1512 1511 1514 1515 1514 1514 1503 1502 1502 1503 1502 1500 1500 1499 1498
1449 1453 1456 1458 1459 1461 1463 1465 1466 1468 1469 1473 1475 1477 1479 1483 1484 1490 1494 1496 1498 1500 1502 1504 1506 1508 1510 1513 1513 1511 1512 1504 1512 1514 1515 1516 1496 1495 1501 1502 1500 1499 1497 1496 1495
1451 1455 1457 1458 1459 1461 1463 1464 1466 1470 1471 1474 1478 1478 1483 1485 1489 1492 1498 1498 1500 1502 1503 1505 1507 1510 1512 1509 1511 1508 1507 1505 1506 1514 1513 1513 1499 1495 1498 1499 1498 1497 1497 1496 1494
1458 1459 1459 1460 1461 1463 1464 1464 1466 1472 1474 1477 1479 1483 1487 1488 1491 1499 1500 1501 1503 1505 1507 1508 1509 1506 1507 1506 1504 1501 1508 1510 1506 1508 1510 1508 1501 1496 1495 1495 1496 1495 1497 1496 1493
1464 1463 1463 1463 1464 1464 1467 1467 1473 1477 1478 1481 1481 1483 1484 1492 1498 1500 1501 1504 1506 1507 1504 1509 1507 1505 1505 1509 1509 1511 1509 1509 1506 1509 1511 1500 1495 1491 1489 1490 1494 1494 1495 1494 1493
1469 1467 1466 1464 1464 1466 1468 1469 1472 1477 1483 1482 1484 1487 1491 1495 1501 1503 1504 1505 1504 1504 1507 1510 1508 1513 1514 1515 1513 1512 1507 1505 1504 1509 1510 1498 1491 1485 1485 1490 1495 1495 1494 1494 1493
1471 1470 1469 1466 1465 1468 1469 1472 1475 1477 1484 1490 1490 1492 1495 1500 1501 1503 1504 1504 1503 1506 1506 1506 1513 1517 1515 1518 1513 1507 1504 1504 1514 1507 1498 1500 1479 1484 1488 1490 1492 1492 1493 1493 1493
1472 1470 1469 1468 1470 1471 1474 1476 1477 1479 1484 1498 1498 1501 1501 1502 1504 1505 1505 1508 1507 1507 1504 1511 1518 1516 1516 1519 1513 1506 1507 1509 1512 1512 1504 1499 1494 1479 1480 1486 1490 1490 1492 1493 1493
1476 1473 1470 1472 1473 1475 1478 1480 1479 1480 1477 1505 1502 1504 1503 1504 1505 1508 1507 1506 1504 1507 1510 1517 1517 1516 1513 1514 1511 1508 1510 1509 1508 1514 1516 1498 1510 1474 1481 1480 1484 1490 1493 1495 1493
1480 1479 1478 1478 1478 1478 1478 1480 1482 1479 1488 1504 1506 1505 1505 1504 1506 1507 1508 1508 1509 1508 1508 1512 1515 1514 1510 1511 1512 1511 1509 1509 1509 1513 1509 1491 1495 1477 1478 1485 1490 1493 1495 1495 1491
1482 1481 1482 1484 1485 1483 1482 1481 1477 1476 1506 1506 1504 1503 1501 1503 1506 1506 1505 1505 1504 1512 1517 1509 1511 1513 1514 1512 1512 1514 1515 1506 1507 1507 1493 1490 1496 1477 1480 1493 1495 1495 1494 1492 1488
1483 1482 1481 1482 1482 1483 1482 1482 1476 1497 1498 1505 1500 1500 1501 1502 1507 1507 1505 1503 1508 1503 1510 1510 1515 1510 1510 1508 1511 1516 1516 1508 1502 1491 1490 1494 1497 1474 1488 1493 1495 1494 1492 1489 1487
1485 1483 1482 1481 1481 1482 1485 1484 1493 1496 1496 1498 1498 1499 1502 1503 1502 1503 1502 1502 1505 1506 1508 1509 1515 1509 1509 1507 1510 1516 1514 1512 1513 1498 1508 1482 1478 1483 1489 1491 1492 1492 1490 1488 1487
1488 1486 1486 1485 1484 1483 1487 1490 1496 1499 1499 1499 1495 1494 1497 1501 1499 1499 1500 1505 1507 1508 1508 1505 1508 1504 1507 1510 1507 1506 1510 1512 1515 1506 1489 1471 1470 1473 1484 1487 1489 1490 1489 1488 1487
1489 1490 1491 1490 1488 1492 1495 1496 1500 1502 1502 1498 1496 1496 1496 1499 1497 1498 1502 1506 1506 1507 1508 1504 1500 1503 1504 1500 1496 1508 1506 1507 1505 1501 1497 1475 1462 1476 1481 1486 1486 1488 1487 1487 1486
1491 1495 1495 1492 1495 1497 1501 1502 1503 1503 1503 1501 1499 1498 1497 1500 1498 1497 1499 1502 1507 1507 1504 1505 1502 1500 1494 1496 1498 1497 1496 1496 1498 1490 1487 1486 1470 1476 1480 1483 1486 1486 1487 1487 1486
1497 1498 1498 1497 1501 1500 1502 1503 1504 1502 1503 1501 1501 1502 1503 1500 1500 1499 1502 1506 1508 1509 1506 1506 1501 1500 1497 1499 1499 1498 1492 1495 1496 1497 1490 1481 1460 1474 1479 1482 1484 1485 1486 1486 1485
1501 1504 1503 1502 1505 1501 1500 1503 1504 1507 1505 1504 1504 1503 1503 1501 1502 1503 1504 1508 1509 1509 1510 1510 1502 1501 1493 1491 1493 1491 1490 1494 1495 1493 1474 1470 1460 1468 1474 1477 1481 1483 1483 1483 1483
1504 1508 1507 1505 1505 1504 1503 1505 1504 1505 1506 1506 1504 1504 1503 1499 1501 1502 1504 1506 1509 1510 1510 1509 1503 1499 1496 1490 1488 1488 1487 1484 1491 1488 1484 1458 1465 1460 1463 1470 1473 1477 1479 1479 1479
1507 1509 1510 1508 1508 1505 1504 1506 1505 1506 1505 1503 1504 1506 1503 1502 1504 1502 1505 1503 1502 1508 1507 1508 1503 1500 1499 1484 1486 1484 1478 1477 1475 1475 1474 1469 1463 1456 1458 1463 1468 1470 1472 1473 1474
1510 1511 1511 1510 1509 1505 1506 1508 1507 1508 1508 1507 1506 1505 1503 1505 1506 1506 1505 1504 1503 1503 1502 1504 1503 1502 1491 1484 1481 1475 1460 1464 1464 1463 1463 1464 1453 1453 1457 1459 1461 1464 1467 1468 1470